Regional Weather Roundup
Issued by NWS Kansas City/Pleasant Hill, MO

Home | Current Version | Previous Version | Graphics & Text | Print | Product List | Glossary Off
Versions: 1 2 3 4 5 6 7 8 9 10 11 12 13 14 15 16 17 18 19 20 21 22 23 24 25 26 27 28 29 30 31 32 33 34 35 36 37 38 39 40 41 42 43 44 45 46 47 48 49 50

000
ASUS43 KEAX 212311
RWREAX

WEATHER ROUNDUP FOR EASTERN KANSAS AND NORTHWEST MISSOURI
NATIONAL WEATHER SERVICE KANSAS CITY/PLEASANT HILL MO
600 PM CDT SUN SEP 21 2014

KSZ040-057-103>105-MOZ028-029-037-043-220000-
...KANSAS CITY METROPOLITAN AREA...

CITY           SKY/WX    TMP DP  RH WIND       PRES   REMARKS
K.C. INTL      MOSUNNY   72  49  44 NW13      30.16R
K.C. DOWNTOWN  SUNNY     75  47  36 N12       30.15R
LEES SUMMIT    LGT RAIN  73  46  38 N15       30.16R
OLATHE - IXD   SUNNY     72  48  42 N16       30.17R
OLATHE - OJC   SUNNY     74  46  36 N12       30.15R
LAWRENCE       SUNNY     74  45  35 N10G21    30.16S

$$

MOZ001>008-011>017-020>025-030>033-038>040-044>046-053-054-220000-
...NORTHERN AND CENTRAL MISSOURI...

CITY           SKY/WX    TMP DP  RH WIND       PRES   REMARKS
ST. JOSEPH     SUNNY     73  48  41 N10       30.17R
MOSBY          CLEAR     72  46  40 N13G18    30.15R
WHITEMAN AFB   SUNNY     73  50  44 N12       30.13R
CLINTON        SUNNY     73  52  46 NW10      30.14R
SEDALIA        SUNNY     74  47  38 N14G22    30.13R
WARSAW         NOT AVBL
MARSHALL       SUNNY     73  50  43 N12       30.14S
CHILLICOTHE      N/A     73  49  42 VRB5      30.16R
MOBERLY        SUNNY     72  45  37 NW12G17   30.14R
KIRKSVILLE     PTSUNNY   69  50  50 NW9       30.15R

$$

MOZ041-047>049-056>058-063>065-088>090-097-220000-
...EASTERN AND SOUTHERN MISSOURI...

CITY           SKY/WX    TMP DP  RH WIND       PRES   REMARKS
ST. LOUIS INTL MOSUNNY   74  49  41 NW10      30.07R
SPIRIT OF STL  MOSUNNY   73  49  42 NW13      30.06R
COLUMBIA       SUNNY     71  50  47 N12       30.12R
JEFFERSON CITY SUNNY     74  47  38 N13       30.10R
MEXICO         MOSUNNY   73  54  49 NW10      30.11R
HANNIBAL       SUNNY     68  46  45 N8        30.12R
ROLLA          SUNNY     72  46  39 NW10      30.09R
LEBANON        SUNNY     75  45  33 N14G24    30.12R
OSAGE BEACH    SUNNY     73  46  38 NW7       30.11R
SPRINGFIELD    SUNNY     74  48  39 N12       30.12S
BRANSON        MOSUNNY   77  45  31 NW13G18   30.12R
NEVADA         SUNNY     73  50  43 N10       30.15R
JOPLIN         SUNNY     76  49  38 N8        30.13S
WEST PLAINS    SUNNY     76  45  33 NW10      30.09R

$$

IAZ060-094-KSZ022-034>040-054-083-096-NEZ052-066-093-220000-
...KANSAS...SOUTHEAST NEBRASKA AND IOWA...

CITY           SKY/WX    TMP DP  RH WIND       PRES   REMARKS
TOPEKA         SUNNY     75  48  38 NW14      30.17S
MANHATTAN      SUNNY     77  43  29 N9        30.18S
EMPORIA        SUNNY     75  47  36 N8        30.17R
CHANUTE        SUNNY     77  47  34 N8        30.15R
WICHITA        MOSUNNY   81  39  22 N14G21    30.18R
OMAHA          MOSUNNY   71  47  42 N15       30.21R
LINCOLN        SUNNY     72  46  39 N15       30.22S
FALLS CITY     SUNNY     73  47  39 N14G21    30.18R
LAMONI         PTSUNNY   68  50  52 N12       30.17R
DES MOINES     PTSUNNY   68  48  48 N10       30.16R

$$




USA.gov is the U.S. government's official web portal to all federal, state and local government web resources and services.